Time,TemperatureF,DewpointF,PressureIn,WindDirection,WindDirectionDegrees,WindSpeedMPH,WindSpeedGustMPH,Humidity,HourlyPrecipIn,Conditions,Clouds,dailyrainin,SoftwareType,DateUTC
2013-08-05 00:02:00,66.0,63.0,30.13,NNW,348,0.0,0.0,89,0.00,,,0.00,,2013-08-05 05:02:00,
2013-08-05 00:12:00,66.0,63.0,30.13,NNW,348,0.0,0.0,90,0.00,,,0.00,,2013-08-05 05:12:00,
2013-08-05 00:22:00,66.0,63.0,30.13,NNW,348,0.0,0.0,90,0.00,,,0.00,,2013-08-05 05:22:00,
2013-08-05 00:32:00,66.0,63.0,30.13,NNW,348,0.0,0.0,90,0.00,,,0.00,,2013-08-05 05:32:00,
2013-08-05 00:43:00,66.0,63.0,30.13,NNW,348,0.0,0.0,90,0.00,,,0.00,,2013-08-05 05:43:00,
2013-08-05 00:53:00,65.0,62.0,30.12,NNW,348,0.0,0.0,90,0.00,,,0.00,,2013-08-05 05:53:00,
2013-08-05 01:02:00,65.0,62.0,30.12,NNW,348,0.0,0.0,90,0.00,,,0.00,,2013-08-05 06:02:00,
2013-08-05 01:12:00,65.0,62.0,30.12,NNW,348,0.0,0.0,90,0.00,,,0.00,,2013-08-05 06:12:00,
2013-08-05 01:22:00,65.0,62.0,30.12,NNW,348,0.0,0.0,90,0.00,,,0.00,,2013-08-05 06:22:00,
2013-08-05 01:32:00,65.0,62.0,30.12,NNW,348,0.0,0.0,90,0.00,,,0.00,,2013-08-05 06:32:00,
2013-08-05 01:43:00,64.0,61.0,30.12,NNW,348,0.0,0.0,90,0.00,,,0.00,,2013-08-05 06:43:00,
2013-08-05 01:52:00,64.0,61.0,30.11,NNW,348,0.0,0.0,90,0.00,,,0.00,,2013-08-05 06:52:00,
2013-08-05 02:02:00,64.0,61.0,30.11,NNW,348,0.0,0.0,91,0.00,,,0.00,,2013-08-05 07:02:00,
2013-08-05 02:12:00,64.0,61.0,30.11,NNW,348,0.0,0.0,91,0.00,,,0.00,,2013-08-05 07:12:00,
2013-08-05 02:22:00,64.0,62.0,30.12,NNW,348,0.0,0.0,92,0.00,,,0.00,,2013-08-05 07:22:00,
2013-08-05 02:32:00,64.0,62.0,30.12,NNW,348,0.0,0.0,92,0.00,,,0.00,,2013-08-05 07:32:00,
2013-08-05 02:43:00,64.0,62.0,30.12,NNW,348,0.0,0.0,92,0.00,,,0.00,,2013-08-05 07:43:00,
2013-08-05 02:53:00,63.0,61.0,30.11,NNW,348,0.0,0.0,92,0.00,,,0.00,,2013-08-05 07:53:00,
2013-08-05 03:02:00,63.0,61.0,30.11,NNW,348,0.0,0.0,92,0.00,,,0.00,,2013-08-05 08:02:00,
2013-08-05 03:12:00,63.0,61.0,30.11,NNW,348,0.0,0.0,92,0.00,,,0.00,,2013-08-05 08:12:00,
2013-08-05 03:22:00,63.0,61.0,30.11,NNW,348,0.0,0.0,92,0.00,,,0.00,,2013-08-05 08:22:00,
2013-08-05 03:34:00,63.0,61.0,30.11,NNW,348,0.0,0.0,92,0.00,,,0.00,,2013-08-05 08:34:00,
2013-08-05 03:47:00,63.0,61.0,30.11,NNW,348,0.0,0.0,92,0.00,,,0.00,,2013-08-05 08:47:00,
2013-08-05 03:53:00,62.0,60.0,30.11,NNW,348,0.0,0.0,92,0.00,,,0.00,,2013-08-05 08:53:00,
2013-08-05 04:06:00,62.0,60.0,30.10,NNW,348,0.0,0.0,93,0.00,,,0.00,,2013-08-05 09:06:00,
2013-08-05 04:27:00,62.0,60.0,30.10,NNW,348,0.0,0.0,93,0.00,,,0.00,,2013-08-05 09:27:00,
2013-08-05 04:38:00,62.0,60.0,30.10,NNW,348,0.0,0.0,93,0.00,,,0.00,,2013-08-05 09:38:00,
2013-08-05 04:48:00,62.0,60.0,30.10,NNW,348,0.0,0.0,93,0.00,,,0.00,,2013-08-05 09:48:00,
2013-08-05 04:53:00,62.0,60.0,30.09,NNW,348,0.0,0.0,93,0.00,,,0.00,,2013-08-05 09:53:00,
2013-08-05 05:09:00,62.0,60.0,30.09,NNW,348,0.0,0.0,94,0.00,,,0.00,,2013-08-05 10:09:00,
2013-08-05 05:26:00,62.0,60.0,30.09,NNW,348,0.0,0.0,94,0.00,,,0.00,,2013-08-05 10:26:00,
2013-08-05 05:32:00,62.0,60.0,30.09,NNW,348,0.0,0.0,94,0.00,,,0.00,,2013-08-05 10:32:00,
2013-08-05 05:46:00,62.0,60.0,30.09,NNW,348,0.0,0.0,94,0.00,,,0.00,,2013-08-05 10:46:00,
2013-08-05 05:52:00,62.0,60.0,30.10,NNW,348,0.0,0.0,94,0.00,,,0.00,,2013-08-05 10:52:00,
2013-08-05 06:08:00,62.0,60.0,30.10,NNW,348,0.0,0.0,94,0.00,,,0.00,,2013-08-05 11:08:00,
2013-08-05 06:14:00,62.0,60.0,30.10,NNW,348,0.0,0.0,94,0.00,,,0.00,,2013-08-05 11:14:00,
2013-08-05 06:27:00,62.0,61.0,30.10,NNW,348,0.0,0.0,95,0.00,,,0.00,,2013-08-05 11:27:00,
2013-08-05 06:36:00,62.0,61.0,30.11,NNW,348,0.0,0.0,95,0.00,,,0.00,,2013-08-05 11:36:00,
2013-08-05 06:48:00,62.0,61.0,30.11,WNW,284,0.0,0.0,95,0.00,,,0.00,,2013-08-05 11:48:00,
2013-08-05 06:56:00,62.0,61.0,30.11,WNW,284,0.0,0.0,95,0.00,,,0.00,,2013-08-05 11:56:00,
2013-08-05 07:06:00,62.0,61.0,30.11,WNW,284,0.0,0.0,95,0.00,,,0.00,,2013-08-05 12:06:00,
2013-08-05 07:17:00,62.0,61.0,30.11,WNW,284,0.0,0.0,95,0.00,,,0.00,,2013-08-05 12:17:00,
2013-08-05 07:27:00,62.0,61.0,30.12,WNW,284,0.0,0.0,96,0.00,,,0.00,,2013-08-05 12:27:00,
2013-08-05 07:33:00,62.0,61.0,30.12,WNW,284,0.0,0.0,96,0.00,,,0.00,,2013-08-05 12:33:00,
2013-08-05 07:48:00,63.0,62.0,30.12,WNW,284,0.0,0.0,96,0.00,,,0.00,,2013-08-05 12:48:00,
2013-08-05 07:55:00,63.0,62.0,30.12,WNW,284,0.0,0.0,96,0.00,,,0.00,,2013-08-05 12:55:00,
2013-08-05 08:02:00,64.0,63.0,30.12,WNW,284,0.0,0.0,96,0.00,,,0.00,,2013-08-05 13:02:00,
2013-08-05 08:14:00,64.0,63.0,30.12,WSW,251,0.0,0.0,97,0.00,,,0.00,,2013-08-05 13:14:00,
2013-08-05 08:42:00,66.0,65.0,30.11,WSW,251,0.0,0.0,97,0.00,,,0.00,,2013-08-05 13:42:00,
2013-08-05 08:54:00,67.0,66.0,30.10,SW,234,2.0,3.0,97,0.00,,,0.00,,2013-08-05 13:54:00,
2013-08-05 09:06:00,67.0,66.0,30.10,SW,234,2.0,2.0,97,0.00,,,0.00,,2013-08-05 14:06:00,
2013-08-05 09:17:00,68.0,67.0,30.10,SW,225,0.0,1.0,96,0.00,,,0.00,,2013-08-05 14:17:00,
2013-08-05 09:26:00,68.0,67.0,30.10,SW,236,0.0,1.0,95,0.00,,,0.00,,2013-08-05 14:26:00,
2013-08-05 09:37:00,69.0,67.0,30.09,SW,227,2.0,2.0,92,0.00,,,0.00,,2013-08-05 14:37:00,
2013-08-05 09:53:00,71.0,63.0,30.08,SW,225,0.0,3.0,75,0.00,,,0.00,,2013-08-05 14:53:00,
2013-08-05 10:07:00,72.0,62.0,30.08,SE,132,1.0,4.0,72,0.00,,,0.00,,2013-08-05 15:07:00,
2013-08-05 10:14:00,73.0,63.0,30.08,SE,144,0.0,3.0,70,0.00,,,0.00,,2013-08-05 15:14:00,
2013-08-05 10:25:00,74.0,61.0,30.08,ENE,67,0.0,3.0,65,0.00,,,0.00,,2013-08-05 15:25:00,
2013-08-05 10:46:00,76.0,63.0,30.08,SSW,209,2.0,2.0,65,0.00,,,0.00,,2013-08-05 15:46:00,
2013-08-05 11:08:00,77.0,61.0,30.08,ESE,122,5.0,6.0,58,0.00,,,0.00,,2013-08-05 16:08:00,
2013-08-05 11:16:00,78.0,62.0,30.08,SE,133,1.0,3.0,59,0.00,,,0.00,,2013-08-05 16:16:00,
2013-08-05 11:33:00,79.0,60.0,30.06,South,188,3.0,4.0,53,0.00,,,0.00,,2013-08-05 16:33:00,
2013-08-05 11:45:00,79.0,62.0,30.06,SW,222,1.0,2.0,57,0.00,,,0.00,,2013-08-05 16:45:00,
2013-08-05 11:56:00,79.0,60.0,30.07,SSW,204,1.0,3.0,53,0.00,,,0.00,,2013-08-05 16:56:00,
2013-08-05 12:16:00,80.0,61.0,30.06,SW,228,1.0,2.0,52,0.00,,,0.00,,2013-08-05 17:16:00,
2013-08-05 12:22:00,80.0,63.0,30.06,SW,225,5.0,5.0,56,0.00,,,0.00,,2013-08-05 17:22:00,
2013-08-05 12:36:00,79.0,61.0,30.06,SSE,150,1.0,9.0,55,0.00,,,0.00,,2013-08-05 17:36:00,
2013-08-05 12:47:00,79.0,62.0,30.06,ESE,118,0.0,2.0,56,0.00,,,0.00,,2013-08-05 17:47:00,
2013-08-05 12:56:00,80.0,62.0,30.07,SW,215,0.0,3.0,55,0.00,,,0.00,,2013-08-05 17:56:00,
2013-08-05 13:08:00,80.0,64.0,30.06,ESE,119,2.0,2.0,58,0.00,,,0.00,,2013-08-05 18:08:00,
2013-08-05 13:13:00,80.0,64.0,30.06,SE,131,0.0,4.0,58,0.00,,,0.00,,2013-08-05 18:13:00,
2013-08-05 13:26:00,80.0,62.0,30.06,SSW,203,1.0,2.0,54,0.00,,,0.00,,2013-08-05 18:26:00,
2013-08-05 13:44:00,80.0,64.0,30.05,South,183,2.0,3.0,58,0.00,,,0.00,,2013-08-05 18:44:00,
2013-08-05 13:53:00,81.0,65.0,30.04,South,173,0.0,2.0,58,0.00,,,0.00,,2013-08-05 18:53:00,
2013-08-05 14:05:00,81.0,65.0,30.04,South,173,0.0,2.0,58,0.00,,,0.00,,2013-08-05 19:05:00,
2013-08-05 14:14:00,81.0,62.0,30.03,SSW,192,1.0,1.0,52,0.00,,,0.00,,2013-08-05 19:14:00,
2013-08-05 14:26:00,81.0,64.0,30.03,SSE,163,1.0,1.0,57,0.00,,,0.00,,2013-08-05 19:26:00,
2013-08-05 14:54:00,80.0,65.0,30.02,SSW,213,3.0,4.0,61,0.00,,,0.00,,2013-08-05 19:54:00,
2013-08-05 15:08:00,80.0,66.0,30.01,SW,219,5.0,9.0,62,0.00,,,0.00,,2013-08-05 20:08:00,
2013-08-05 15:15:00,80.0,64.0,30.01,SSW,192,1.0,3.0,58,0.00,,,0.00,,2013-08-05 20:15:00,
2013-08-05 15:27:00,79.0,64.0,30.02,SSW,213,0.0,1.0,60,0.00,,,0.00,,2013-08-05 20:27:00,
2013-08-05 15:47:00,77.0,65.0,30.01,SW,217,3.0,5.0,67,0.00,,,0.00,,2013-08-05 20:47:00,
2013-08-05 15:56:00,76.0,65.0,30.02,South,170,3.0,3.0,69,0.00,,,0.00,,2013-08-05 20:56:00,
2013-08-05 16:04:00,75.0,64.0,30.01,South,175,1.0,2.0,68,0.00,,,0.00,,2013-08-05 21:04:00,
2013-08-05 16:06:00,76.0,64.0,30.01,SE,145,2.0,3.0,67,0.00,,,0.00,,2013-08-05 21:06:00,
2013-08-05 16:17:00,76.0,64.0,30.01,South,176,0.0,1.0,66,0.00,,,0.00,,2013-08-05 21:17:00,
2013-08-05 16:26:00,75.0,64.0,30.01,South,175,1.0,2.0,68,0.00,,,0.00,,2013-08-05 21:26:00,
2013-08-05 16:33:00,75.0,64.0,30.01,South,175,1.0,2.0,68,0.00,,,0.00,,2013-08-05 21:33:00,
2013-08-05 16:45:00,75.0,64.0,30.01,South,175,1.0,2.0,68,0.00,,,0.00,,2013-08-05 21:45:00,
2013-08-05 16:53:00,75.0,64.0,30.01,South,175,1.0,2.0,68,0.00,,,0.00,,2013-08-05 21:53:00,
2013-08-05 22:27:00,71.0,66.0,29.96,SSW,196,0.0,0.0,83,0.00,,,0.00,,2013-08-06 03:27:00,
2013-08-05 22:35:00,71.0,66.0,29.96,SSW,196,0.0,0.0,83,0.00,,,0.00,,2013-08-06 03:35:00,
2013-08-05 22:45:00,71.0,66.0,29.96,SSW,196,0.0,0.0,83,0.00,,,0.00,,2013-08-06 03:45:00,
2013-08-05 22:52:00,71.0,66.0,29.96,SSW,196,0.0,0.0,83,0.00,,,0.00,,2013-08-06 03:52:00,
2013-08-05 23:01:00,71.0,66.0,29.96,SSW,196,0.0,0.0,83,0.00,,,0.00,,2013-08-06 04:01:00,